When you browse on this site, cookies collect data to enhance your experience and personalize the content and advertising you see.
Visit our Privacy Policy to learn more. By continuing to use the site, you agree to this use of cookies and data.
  • en France
  • Liste des pays
  • À 7 jours
  • Température de l'eau
  • Carte satellitaire
  • Carte météo
  • Widgets météo
  • user-avatar
    Se connecter

    Météo par heure à Zaranj

    Ce jour, 16 Février, Samedi

    Heure Température Précipitation Vent Pression Humidité
    00:00 +13°C° 0 mm 3 m/s 722 mmHg 34%
    01:00 +13°C° 0 mm 2 m/s 722 mmHg 35%
    02:00 +12°C° 0 mm 3 m/s 721 mmHg 36%
    03:00 +12°C° 0 mm 3 m/s 721 mmHg 36%
    04:00 +11°C° 0 mm 3 m/s 721 mmHg 37%
    05:00 +11°C° 0 mm 3 m/s 721 mmHg 36%
    06:00 +11°C° 0 mm 3 m/s 721 mmHg 36%
    07:00 +11°C° 0 mm 3 m/s 721 mmHg 36%
    08:00 +12°C° 0 mm 3 m/s 721 mmHg 32%
    09:00 +14°C° 0 mm 3 m/s 721 mmHg 29%
    10:00 +16°C° 0 mm 3 m/s 721 mmHg 25%
    11:00 +18°C° 0 mm 4 m/s 720 mmHg 22%
    12:00 +19°C° 0 mm 4 m/s 719 mmHg 19%
    13:00 +21°C° 0 mm 4 m/s 719 mmHg 17%
    14:00 +22°C° 0 mm 4 m/s 718 mmHg 17%
    15:00 +22°C° 0 mm 4 m/s 717 mmHg 17%
    16:00 +24°C° 0 mm 3 m/s 717 mmHg 17%
    17:00 +22°C° 0 mm 3 m/s 717 mmHg 20%
    18:00 +20°C° 0 mm 2 m/s 716 mmHg 23%
    19:00 +19°C° 0 mm 2 m/s 716 mmHg 26%
    20:00 +19°C° 0 mm 2 m/s 716 mmHg 27%
    21:00 +18°C° 0 mm 2 m/s 716 mmHg 28%
    22:00 +18°C° 0 mm 2 m/s 715 mmHg 30%
    23:00 +17°C° 0 mm 2 m/s 715 mmHg 30%

    Demain, 17 Février, Dimanche

    Heure Température Précipitation Vent Pression Humidité
    00:00 +17°C° 0 mm 2 m/s 715 mmHg 30%
    01:00 +17°C° 0 mm 2 m/s 715 mmHg 30%
    02:00 +16°C° 0 mm 2 m/s 715 mmHg 31%
    03:00 +16°C° 0 mm 2 m/s 715 mmHg 32%
    04:00 +16°C° 0 mm 3 m/s 715 mmHg 34%
    05:00 +16°C° 0 mm 3 m/s 716 mmHg 39%
    06:00 +15°C° 0 mm 4 m/s 716 mmHg 45%
    07:00 +15°C° 0 mm 4 m/s 716 mmHg 50%
    08:00 +17°C° 0 mm 4 m/s 717 mmHg 46%
    09:00 +18°C° 0 mm 4 m/s 717 mmHg 41%
    10:00 +19°C° 0 mm 3 m/s 717 mmHg 37%
    11:00 +19°C° 0 mm 3 m/s 717 mmHg 34%
    12:00 +20°C° 0 mm 4 m/s 717 mmHg 31%
    13:00 +21°C° 0 mm 4 m/s 716 mmHg 29%
    14:00 +21°C° 0 mm 4 m/s 716 mmHg 28%
    15:00 +21°C° 0 mm 4 m/s 715 mmHg 28%
    16:00 +21°C° 0 mm 5 m/s 715 mmHg 27%
    17:00 +20°C° 0 mm 4 m/s 715 mmHg 29%
    18:00 +19°C° 0 mm 3 m/s 715 mmHg 30%
    19:00 +19°C° 0 mm 3 m/s 715 mmHg 32%
    20:00 +18°C° 0 mm 2 m/s 715 mmHg 33%
    21:00 +18°C° 0 mm 2 m/s 715 mmHg 35%
    22:00 +18°C° 0 mm 1 m/s 715 mmHg 36%
    23:00 +17°C° 0 mm 2 m/s 715 mmHg 36%

    Après-demain, 18 Février, Lundi

    Heure Température Précipitation Vent Pression Humidité
    00:00 +17°C° 0 mm 3 m/s 715 mmHg 36%
    01:00 +17°C° 0 mm 4 m/s 715 mmHg 37%
    02:00 +17°C° 0 mm 4 m/s 715 mmHg 37%
    03:00 +15°C° 0 mm 4 m/s 715 mmHg 38%
    04:00 +15°C° 0 mm 4 m/s 715 mmHg 39%
    05:00 +14°C° 0 mm 4 m/s 715 mmHg 39%
    06:00 +14°C° 0 mm 4 m/s 715 mmHg 40%
    07:00 +13°C° 0 mm 4 m/s 716 mmHg 41%
    08:00 +14°C° 0 mm 4 m/s 716 mmHg 37%
    09:00 +17°C° 0 mm 4 m/s 717 mmHg 33%
    10:00 +18°C° 0 mm 4 m/s 718 mmHg 28%
    11:00 +19°C° 0 mm 3 m/s 717 mmHg 26%
    12:00 +19°C° 0 mm 3 m/s 717 mmHg 24%
    13:00 +20°C° 0 mm 3 m/s 716 mmHg 22%
    14:00 +20°C° 0 mm 2 m/s 716 mmHg 22%
    15:00 +21°C° 0 mm 2 m/s 715 mmHg 22%
    16:00 +21°C° 0 mm 2 m/s 715 mmHg 21%
    17:00 +20°C° 0 mm 2 m/s 715 mmHg 23%
    18:00 +19°C° 0 mm 2 m/s 715 mmHg 25%
    19:00 +19°C° 0 mm 2 m/s 715 mmHg 27%
    20:00 +18°C° 0 mm 2 m/s 715 mmHg 28%
    21:00 +18°C° 0 mm 2 m/s 715 mmHg 30%
    22:00 +17°C° 0 mm 2 m/s 715 mmHg 31%
    23:00 +17°C° 0 mm 2 m/s 714 mmHg 32%

    19 Février, Mardi

    Heure Température Précipitation Vent Pression Humidité
    00:00 +16°C° 0 mm 1 m/s 714 mmHg 33%
    01:00 +16°C° 0 mm 1 m/s 713 mmHg 35%
    02:00 +15°C° 0 mm 1 m/s 713 mmHg 35%
    03:00 +15°C° 0 mm 2 m/s 713 mmHg 35%
    04:00 +15°C° 0 mm 2 m/s 712 mmHg 36%
    05:00 +14°C° 0 mm 2 m/s 713 mmHg 36%
    06:00 +14°C° 0 mm 2 m/s 713 mmHg 37%
    07:00 +14°C° 0 mm 2 m/s 713 mmHg 38%
    08:00 +15°C° 0 mm 2 m/s 713 mmHg 35%
    09:00 +16°C° 0 mm 2 m/s 714 mmHg 32%
    10:00 +18°C° 0 mm 2 m/s 714 mmHg 29%
    11:00 +19°C° 0 mm 2 m/s 714 mmHg 28%
    12:00 +20°C° 0 mm 2 m/s 713 mmHg 28%
    13:00 +21°C° 0 mm 3 m/s 713 mmHg 27%
    14:00 +21°C° 0 mm 3 m/s 713 mmHg 25%
    15:00 +22°C° 0 mm 3 m/s 713 mmHg 22%
    16:00 +24°C° 0 mm 3 m/s 712 mmHg 19%
    17:00 +23°C° 0 mm 2 m/s 713 mmHg 20%
    18:00 +21°C° 0 mm 2 m/s 713 mmHg 21%
    19:00 +19°C° 0 mm 2 m/s 713 mmHg 22%
    20:00 +19°C° 0 mm 2 m/s 714 mmHg 25%
    21:00 +19°C° 0 mm 2 m/s 714 mmHg 28%
    22:00 +18°C° 0 mm 3 m/s 714 mmHg 31%
    23:00 +18°C° 0 mm 4 m/s 715 mmHg 35%

    20 Février, Mercredi

    Heure Température Précipitation Vent Pression Humidité
    00:00 +16°C° 0 mm 5 m/s 715 mmHg 40%
    01:00 +15°C° 0 mm 7 m/s 715 mmHg 45%
    02:00 +15°C° 0 mm 8 m/s 715 mmHg 45%
    03:00 +13°C° 0 mm 9 m/s 715 mmHg 45%
    04:00 +13°C° 0 mm 10 m/s 715 mmHg 45%
    05:00 +12°C° 0 mm 11 m/s 716 mmHg 48%
    06:00 +11°C° 0 mm 11 m/s 717 mmHg 51%
    07:00 +9°C° 0 mm 11 m/s 717 mmHg 54%
    08:00 +11°C° 0 mm 11 m/s 718 mmHg 52%
    09:00 +11°C° 0 mm 11 m/s 718 mmHg 50%
    10:00 +10°C° 0 mm 12 m/s 719 mmHg 48%
    11:00 +12°C° 0 mm 12 m/s 719 mmHg 46%
    12:00 +12°C° 0 mm 13 m/s 718 mmHg 43%
    13:00 +12°C° 0 mm 14 m/s 718 mmHg 41%
    14:00 +12°C° 0 mm 14 m/s 718 mmHg 41%
    15:00 +10°C° 0 mm 14 m/s 718 mmHg 41%
    16:00 +10°C° 0 mm 14 m/s 718 mmHg 41%
    17:00 +9°C° 0 mm 14 m/s 719 mmHg 42%
    18:00 +9°C° 0 mm 14 m/s 720 mmHg 43%
    19:00 +8°C° 0 mm 14 m/s 720 mmHg 44%
    20:00 +6°C° 0 mm 14 m/s 721 mmHg 45%
    21:00 +5°C° 0 mm 14 m/s 721 mmHg 46%
    22:00 +4°C° 0 mm 14 m/s 722 mmHg 47%
    23:00 +4°C° 0 mm 14 m/s 722 mmHg 47%

    21 Février, Jeudi

    Heure Température Précipitation Vent Pression Humidité
    00:00 +3°C° 0 mm 14 m/s 722 mmHg 48%
    01:00 +3°C° 0 mm 13 m/s 722 mmHg 49%
    02:00 +1°C° 0 mm 13 m/s 722 mmHg 49%
    03:00 +1°C° 0 mm 13 m/s 722 mmHg 49%
    04:00 +1°C° 0 mm 13 m/s 722 mmHg 48%
    05:00 +2°C° 0 mm 12 m/s 723 mmHg 47%
    06:00 0°C° 0 mm 12 m/s 723 mmHg 46%
    07:00 0°C° 0 mm 12 m/s 724 mmHg 46%
    08:00 +2°C° 0 mm 12 m/s 724 mmHg 42%
    09:00 +3°C° 0 mm 11 m/s 724 mmHg 39%
    10:00 +4°C° 0 mm 11 m/s 725 mmHg 36%
    11:00 +6°C° 0 mm 11 m/s 724 mmHg 33%
    12:00 +7°C° 0 mm 10 m/s 723 mmHg 31%
    13:00 +8°C° 0 mm 10 m/s 723 mmHg 28%
    14:00 +8°C° 0 mm 10 m/s 723 mmHg 27%
    15:00 +8°C° 0 mm 9 m/s 722 mmHg 27%
    16:00 +8°C° 0 mm 9 m/s 722 mmHg 26%
    17:00 +9°C° 0 mm 8 m/s 723 mmHg 28%
    18:00 +8°C° 0 mm 7 m/s 723 mmHg 30%
    19:00 +7°C° 0 mm 6 m/s 723 mmHg 33%
    20:00 +7°C° 0 mm 6 m/s 724 mmHg 34%
    21:00 +5°C° 0 mm 6 m/s 724 mmHg 35%
    22:00 +6°C° 0 mm 5 m/s 724 mmHg 37%
    23:00 +6°C° 0 mm 5 m/s 724 mmHg 38%
    Voir plus